Home   Weather   Fairfield   Past weeks
Flag for USA

Past Weather in Fairfield, New Jersey, USA — Yesterday and Last 2 Weeks

Now
41 °F

Passing clouds.


Feels Like: 36 °F
Forecast: 36 / 34 °F
Wind: 8 mph from West

Location: New York City - Central Park

Current Time: Dec 15, 2019 at 7:21:08 pm

Latest Report: Dec 15, 2019 at 6:51 pm


Visibility: 10 mi

Pressure: 30.03 "Hg

Humidity: 43%

Dew Point: 20 °F

Location of FairfieldLocation

Past Weather in Fairfield — Graph

°F

Fairfield Temperature Yesterday

Maximum temperature yesterday: 56 °F (at 4:35 pm)
Minimum temperature yesterday: 45 °F (at 11:51 pm)
Average temperature yesterday: 50 °F

High & Low Weather Summary for the Past Weeks

 TemperatureHumidityPressure
High57 °F (Dec 10, 1:51 am)100% (Dec 9, 7:51 pm)30.73 "Hg (Dec 9, 7:51 pm)
Low26 °F (Dec 12, 6:51 am)29% (Dec 12, 12:51 pm)29.18 "Hg (Dec 14, 2:51 pm)
Average40 °F74%29.92 "Hg
* Reported Nov 30 5:51 pm — Dec 15 5:51 pm, Fairfield. Weather by CustomWeather, © 2019

Note: Actual official high and low records may vary slightly from our data, if they occured in-between our weather recording intervals... More about our weather records

Fairfield Weather History for the Previous 24 Hours

Scroll right to see more
 ConditionsComfort  
Time TempWeatherWind HumidityBarometerVisibility
5:51 pm
Sun, Dec 15
42 °FPassing clouds.9 mph41%30.01 "Hg10 mi
4:51 pm43 °FPassing clouds.10 mph40%29.96 "Hg10 mi
3:51 pm43 °FScattered clouds.14 mph42%29.92 "Hg10 mi
2:51 pm44 °FPartly sunny.15 mph38%29.88 "Hg10 mi
1:51 pm45 °FScattered clouds.14 mph37%29.83 "Hg10 mi
12:51 pm47 °FPartly sunny.13 mph39%29.80 "Hg10 mi
11:51 am47 °FOvercast.13 mph41%29.78 "Hg10 mi
10:51 am47 °FPartly sunny.7 mph54%29.77 "Hg10 mi
9:51 am46 °FScattered clouds.9 mph56%29.75 "Hg10 mi
8:51 am45 °FOvercast.9 mph58%29.72 "Hg10 mi
7:51 am44 °FOvercast.6 mph60%29.69 "Hg10 mi
6:51 am44 °FOvercast.9 mph60%29.66 "Hg10 mi
5:51 am43 °FPassing clouds.14 mph62%29.63 "Hg10 mi
4:51 am44 °FOvercast.5 mph63%29.59 "Hg10 mi
3:51 am43 °FPassing clouds.9 mph68%29.55 "Hg10 mi
2:51 am43 °FMostly cloudy.5 mph65%29.52 "Hg10 mi
1:51 am43 °FPassing clouds.13 mph65%29.47 "Hg10 mi
12:51 am44 °FPassing clouds.12 mph63%29.42 "Hg10 mi
11:51 pm
Sat, Dec 14
45 °FOvercast.3 mph65%29.40 "Hg10 mi
10:51 pm46 °FMostly cloudy.14 mph68%29.36 "Hg10 mi
10:11 pm47 °FOvercast.8 mph69%29.37 "Hg10 mi
9:51 pm47 °FMostly cloudy.10 mph69%29.33 "Hg10 mi
8:51 pm49 °FMostly cloudy.14 mph69%29.30 "Hg10 mi
7:51 pm51 °FMostly cloudy.N/A74%29.26 "Hg10 mi
Weather by CustomWeather, © 2019

See weather overview

Advertising